Погода в Крапивинском

Россия / Кемеровская область (Кузбасс)     55°00′20″N   86°47′59″E
темп.,
°C
ветер,
м/с
пор.,
м/с
влажн.,
%
обл.,
%
осадки,
мм/ч
давл.,
гПа
погр.,
м
11 апреля, вс
вс1101:00−1ссв25895 0.0 104072
04:00−2ссв26905 0.0 1040122
07:00−3св11925 0.0 104127
10:00+3всв1171100 0.0 1040294
13:00+6с01598 0.0 1039580
16:00+7с225844 0.0 1038744
19:00+3ссв118883 0.0 103910
22:000ссз119494 0.0 103810
12 апреля, пн
пн1201:00+1сз1192100 0.0 103714
04:00+1юз0093100 0.0 103613
07:00+1ю119289 0.0 103626
10:00+4ююз2380100 0.0 1034315
13:00+7юз3669100 0.0 1032586
16:00+9юз3865100 0.0 1030769
19:00+6юз2779100 0.0 1029187
22:00+4зюз3985100 0.0 1028228
13 апреля, вт
вт1301:00+2зюз3883100 0.0 1027268
04:00+1з2799100 3.6 1028328
07:00+2ссз259886 3.9 1029344
10:00+4ссз347761 0.0 1030924
13:00+6зсз35555 0.1 10301340
16:00+7зсз5747100 0.0 10302054
19:00+6з486084 0.2 1030566
22:00+2з278098 0.3 1031148
14 апреля, ср
ср1401:00+2з3886100 0.4 1031245
04:00+2зюз41087100 0.2 1031357
07:00+2зюз4992100 0.3 1031451
10:00+4з587895 0.0 1030670
13:00+6з5872100 0.1 10291151
16:00+6з4876100 0.1 10281066
19:00+7юз41068100 0.2 1026600
22:00+6юз41075100 0.1 1025446
15 апреля, чт
чт1501:00+5юз41176100 0.1 1023494
04:00+4юз41191100 1.8 1021554
07:00+4зюз3895100 4.6 1021413
10:00+5юз3795100 1.6 1021313
13:00+6ююз3691100 2.0 1021380
16:00+5ююв3794100 1.3 1020263
19:00+5юв3891100 1.3 1019211
22:00+5ююв3794100 0.1 1018177